Weather observations for the past three days for
Junction, Kimble County Airport
Imperial (Metric)
Date Time (cdt) Wind (mph) Vis. (mi.) Weather Sky Cond. Temperature (ºF) Relative Humidity Wind Chill (°F) Heat Index (°F) Pressure Precipitation (in)
Air Dwpt 6 hour altimeter (in) sea level (mb) 1 hr 3 hr 6 hr
Max. Min.
07 16:51 NE 9 10.00 Overcast OVC034 61 39 44% 30.02 1013.9
07 15:51 E 9 10.00 Overcast OVC039 61 39.9 46% 30.06 1015.4 0.01
07 14:51 NE 16 10.00 Mostly Cloudy FEW045 BKN060 62.1 39.9 44% 30.06 1015.4
07 13:51 E 14 G 22 10.00 Mostly Cloudy BKN016 BKN090 63 39.9 43% 30.07 1015.8 0.01
07 12:51 E 10 10.00 Overcast FEW020 BKN037 OVC110 57.9 41 59 55.9 53% 30.09 1016.7
07 11:51 NE 13 10.00 NULL NULL 59 37.9 46% 30.08 1016.3
07 10:51 E 6 10.00 Thunderstorm in Vicinity OVC015 57 37.9 49% 30.1 1017.0
07 09:51 NE 13 G 18 8.00 Overcast SCT008 BKN014 OVC026 55.9 37.9 51% 30.08 1016.3
07 08:51 NE 12 G 23 8.00 Overcast OVC008 55.9 37.9 51% 30.11 1017.1
07 07:51 NE 10 8.00 Overcast OVC009 55.9 39 53% 30.1 1016.6
07 06:51 NE 9 G 20 10.00 Overcast OVC010 55.9 39 60.1 55.9 53% 30.08 1016.0
07 05:51 NE 9 10.00 Overcast OVC013 57 39.9 53% 30.06 1015.3
07 04:51 NE 9 10.00 A Few Clouds FEW029 FEW039 57.9 41 53% 30.03 1014.4
07 03:51 NE 7 10.00 A Few Clouds FEW013 57.9 41 53% 30.03 1014.4
07 02:51 N 5 9.00 Fair CLR 59 39 48% 30.03 1014.3
07 01:51 SE 3 9.00 Fair CLR 59 39 48% 30.04 1014.6
07 00:51 E 5 9.00 Fair CLR 60.1 37 69.1 60.1 42% 29.99 1013.0
06 23:51 E 8 10.00 Mostly Cloudy BKN010 61 37.9 43% 30 1013.4
06 22:51 E 8 10.00 A Few Clouds FEW011 61 37.9 43% 30.01 1013.6
06 21:51 E 8 10.00 Overcast OVC014 62.1 37.9 41% 29.98 1012.5
06 20:51 E 7 10.00 A Few Clouds FEW016 63 39 41% 29.95 1011.8
06 19:51 E 8 10.00 Fair CLR 64.9 39 39% 29.94 1010.8
06 18:51 NE 8 10.00 Fair CLR 68 39.9 70 62.1 36% 29.92 1009.8
06 17:51 Calm 10.00 Fair CLR 69.1 39.9 35% 29.91 1009.5
06 16:51 NE 8 10.00 Overcast OVC015 66.9 39 36% 29.92 1010.2
06 15:51 NE 8 10.00 Overcast OVC015 66 39.9 39% 29.92 1010.3
06 14:51 NE 9 9.00 Overcast OVC012 64 39.9 41% 29.95 1011.1
06 13:51 N 8 8.00 Overcast OVC010 62.1 39.9 44% 29.95 1011.5
06 12:51 N 10 10.00 Overcast OVC010 63 39.9 73 57.9 43% 29.96 1011.6 0.01 0.67
06 11:51 NE 9 10.00 Overcast OVC010 62.1 39.9 44% 29.96 1011.5 0.08
06 10:51 NE 6 4.00 Thunderstorm Rain OVC008 61 39 44% 29.93 1010.3
06 09:51 N 3 10.00 Overcast OVC007 61 39.9 46% 29.91 1009.6 0.39 0.58
06 08:51 NW 20 G 41 1.00 Thunderstorm Heavy Rain Fog/Mist SCT012 BKN032 OVC046 59 59 100% 29.92 1010.0 0.17
06 07:51 E 15 1.00 Thunderstorm Light Rain Fog/Mist OVC006 66 66 100% 29.77 1004.6 0.02
06 06:51 E 5 6.00 Fog/Mist OVC008 73 73 73.9 68 100% 29.8 1005.2
06 05:51 Calm 7.00 Overcast BKN010 OVC018 73 72 96% 29.82 1005.6
06 04:51 Calm 8.00 Partly Cloudy FEW017 SCT025 70 70 100% 29.81 1005.4
06 03:51 Calm 8.00 Overcast OVC017 72 72 100% 29.8 1005.0
06 02:51 S 5 9.00 Overcast SCT009 OVC015 71.1 69.1 94% 29.79 1005.0
06 01:51 Calm 9.00 Fair CLR 69.1 68 96% 29.8 1005.2
06 00:51 NW 5 10.00 Fair CLR 72 69.1 91.9 72 91% 29.8 1005.5
05 23:51 Calm 10.00 Fair CLR 73.9 69.1 85% 29.8 1005.6
05 22:51 Calm 10.00 Fair CLR 75.9 70 82% 77 29.8 1005.3
05 21:51 S 5 10.00 Fair CLR 78.1 70 76% 80 29.77 1004.5
05 20:51 Vrbl 5 10.00 Fair CLR 81 69.1 67% 84 29.73 1003.2
05 19:51 N 3 10.00 Fair CLR 88 57.9 36% 87 29.71 1002.3
05 18:51 NW 6 10.00 Fair CLR 91.9 57 93.9 84 31% 91 29.71 1002.0
05 17:51 NW 8 10.00 Fair CLR 91.9 57.9 32% 91 29.71 1002.1
05 16:51 NW 7 10.00 Fair CLR 93 57.9 31% 92 29.71 1002.1
05 15:51 Vrbl 3 8.00 Fair CLR 91.9 61 36% 92 29.73 1002.8
05 14:51 Vrbl 3 10.00 Fair CLR 90 62.1 39% 90 29.74 1003.3
05 13:51 Vrbl 3 10.00 Fair CLR 89.1 64 43% 90 29.76 1003.9
05 12:51 Vrbl 5 10.00 Fair CLR 84 69.1 84 70 61% 88 29.79 1005.1
05 11:51 SW 7 10.00 Fair CLR 80.1 69.1 69% 83 29.8 1005.7
05 10:51 SW 7 10.00 A Few Clouds FEW020 77 69.1 77% 79 29.81 1005.8
05 09:51 SW 7 G 18 10.00 Overcast OVC015 72 68 87% 29.81 1006.0
05 08:51 SW 9 G 20 10.00 Overcast OVC015 71.1 66.9 87% 29.81 1005.9
05 07:51 SW 9 10.00 Overcast OVC013 70 68 93% 29.79 1005.4
05 06:51 SW 8 10.00 Overcast OVC013 70 66.9 70 66 90% 29.77 1004.4
05 05:51 Vrbl 3 10.00 Overcast OVC015 69.1 66.9 93% 29.76 1004.2
05 04:51 W 3 10.00 Fair CLR 68 66 93% 29.76 1004.3
05 03:51 Calm 10.00 Fair CLR 66.9 64.9 93% 29.77 1004.6
05 02:51 Calm 10.00 Fair CLR 69.1 64 84% 29.78 1005.0
05 01:51 SW 3 10.00 Fair CLR 70 64 82% 29.8 1005.7
05 00:51 Calm 10.00 Fair CLR 70 64 82 70 82% 29.81 1005.9
04 23:51 SW 3 10.00 Fair CLR 71.1 64 79% 29.82 1006.4
04 22:51 S 6 10.00 Fair CLR 72 64 76% 29.82 1006.4
04 21:51 S 9 10.00 Fair CLR 73 64 74% 29.81 1006.1
04 20:51 S 9 G 23 10.00 Fair CLR 75 64 69% 77 29.8 1005.8
04 19:51 S 12 10.00 Fair CLR 78.1 64.9 64% 80 29.79 1005.6
04 18:51 S 15 G 23 10.00 Fair CLR 82 64.9 84 77 56% 84 29.79 1005.5
04 17:51 S 10 G 20 10.00 Fair CLR 82.9 64.9 55% 85 29.8 1005.6
Date Time (cdt) Wind (mph) Vis. (mi.) Weather Sky Cond. Air Dwpt Max. Min. Relative Humidity Wind Chill (°F) Heat Index (°F) altimeter (in) sea level (mb) 1 hr 3 hr 6 hr
6 hour
Temperature (ºF) Pressure Precipitation (in)